sat.trackr.live / text

‹ back to catalog

STARLINK-32560

NORAD 61982 · 2024-210Z

PAYLOAD ACTIVE UNKNOWN

§ Identity

Operator
Country
US
Launch date
2024-11-14
Launch site
AFETR
Launch vehicle
Mass (kg)
RCS (m²)

Purposes: comms

External: N2YO · Heavens-Above · Gunter

§ Orbital elements

Epoch: 2026-09-21T01:40:06.568608Z

Period
94.27 min
Inclination
42.9996°
Eccentricity
0.0001427
Mean motion
15.27588516 rev/d
Perigee alt
482.0 km
Apogee alt
484.0 km
Semi-major
6,861.2 km
B*
4.7704e-4
RAAN
156.1691°
Arg perigee
275.0410°
Mean anomaly
85.0279°
Rev number
10,476

§ Raw data

STARLINK-325601 61982U 24210Z   26264.06952047  .00012891  00000+0  47704-3 0  99932 61982  42.9996 156.1691 0001427 275.0410  85.0279 15.27588516104766

JSON: /api/v1/satellites/61982 · /tle

For live sub-satellite position, see the globe view (requires WebGL).

§ Visibility from observer

Set your observer location to see the next 7 days of passes ≥ 10°. The values pass through the URL so the page stays shareable.

No JS? Fill the form by hand. The geolocation button needs JavaScript.